Simultaneous Nadir Overpasses (SNOs) Predictions

Prediction of SNOs between GOES-15 and TERRA Satellite Orbit:

Table of predicted SNOs for the next 14.0 days since TLE Epoch: 4/13/2017
Index Date Time (GOES-15) GOES-15 Lat,Lon TERRA Lat,Lon Distance(km) Time Diff (sec)
1 04/15/2017 07:18:37 0.05,-135.45 0.82,-131.86 408.73 80
2 04/15/2017 19:39:53 -0.06,-135.47 0.28,-137.01 175.20 80
3 04/17/2017 19:25:04 -0.06,-135.48 -0.39,-134.07 161.06 80
4 04/18/2017 07:46:28 0.07,-135.46 -0.75,-139.26 432.09 80
5 04/19/2017 19:12:55 -0.07,-135.49 -1.01,-131.12 496.33 80
6 04/20/2017 07:34:19 0.07,-135.46 -0.14,-136.31 97.00 80
7 04/22/2017 07:24:51 0.07,-135.46 0.49,-133.36 237.37 80
8 04/22/2017 19:46:08 -0.08,-135.48 0.59,-138.53 346.90 80
9 04/24/2017 19:34:01 -0.08,-135.47 -0.04,-135.59 13.83 80
10 04/26/2017 19:19:15 -0.08,-135.45 -0.69,-132.66 318.21 80
11 04/27/2017 07:40:40 0.08,-135.42 -0.43,-137.85 276.45 80




NCC Satellite Simultaneous Nadir Overpasses (SNOs) Prediction Service
